カタログに戻る

STARLINK-30480

運用中通信VLEO
NORAD 58069·PAYLOAD·🇺🇸 United States

打ち上げ Oct 13, 2023 から Cape Canaveral Space Force Station

Loading…

次のパス (今後24時間)

TLE

最新Source: CelesTrak SupGP

元期: Sep 14, 2026, 22:24 UTC

1 58069C 23158U   26257.93381944  .00039172  00000+0  14192-2 0  2577
2 58069  43.0008 256.0816 0001742 257.1626 100.6511 15.27550126    15

AllMySatでSTARLINK-30480をリアルタイム追跡

Download on the App Store